Вернуться в каталог

STARLINK-3814

АктивенСвязьVLEO
NORAD 52335·PAYLOAD·🇺🇸 United States

Запущен Apr 29, 2022 с Cape Canaveral Space Force Station

Loading…

Ближайшие Пролёты (ближайшие 24 часа)

TLE

СвежийSource: CelesTrak SupGP

Эпоха: Sep 14, 2026, 21:42 UTC

1 52335C 22045E   26257.90465278  .00756480  00000+0  23738-1 0  2574
2 52335  53.1608  77.6585 0001252  86.0391  15.0404 15.32106645    16

Отслеживайте STARLINK-3814 в реальном времени с AllMySat

Download on the App Store